Location: Squirrel Cove
(50.1074°N, 124.9139°W)
Time: 18:24:20
(UTC-08:00)

Envisat - Pass Details

Date: 27 November 2022
Orbit: 763 x 765 km, 98.2° (Epoch: 05 February)

Event Time Altitude Azimuth Distance (km) Brightness Sun altitude
Rises 05:03:38 0° 12° (NNE) 3,247 6.4 -26.2°
Reaches altitude 10° 05:05:58 10° 10° (N) 2,316 5.5 -25.8°
Enters shadow 05:10:00 53° 343° (NNW) 942 3.2 -25.2°
